Date String (YYYY-MM-DD hh:mm:ss) UTC,Instrument flags,Ambient pressure (hPa),Sample flow (lpm),Bypass flow (lpm),Sample temperature (°C),Ambient temperature (°C),ASC tube jacket temperature (°C),LED temperature (°C),Box temperature (°C),Sample RH (%),Span deviation,Mass concentration (μg/m³),Mass concentration (μg/m³),Mass concentration (μg/m³)
DateTimeUTC,F1_M11,P_M11,Q1_M11,Q2_M11,T1_M11,T2_M11,T3_M11,T4_M11,T5_M11,U1_M11,ZSPAN_M11,X2_M11,X0_M11,X1_M11
2022-06-02 16:00:00,,0828.2,5.00,0.00,27.2,26.3,00.0,36.0,29.1,26.1,-002.0,0008.20,0011.50,0007.79
2022-06-02 16:01:00,,0828.1,4.99,0.00,27.2,26.3,00.0,36.0,29.1,26.4,-001.9,0008.25,0011.56,0007.83
2022-06-02 16:02:00,,0828.2,5.00,0.00,27.2,26.3,00.0,36.0,29.2,27.0,-001.7,0008.30,0011.59,0007.88
2022-06-02 16:03:00,,0828.2,5.00,0.00,27.2,26.3,00.0,36.0,29.2,26.0,-001.8,0008.37,0011.66,0007.95
2022-06-02 16:04:00,,0828.2,5.00,0.00,27.2,26.4,00.0,36.0,29.2,25.9,-001.9,0008.44,0011.69,0008.04
2022-06-02 16:05:00,,0828.2,5.00,0.00,27.2,26.4,00.0,36.0,29.2,26.5,-002.0,0008.53,0011.78,0008.13
2022-06-02 16:06:00,,0828.3,5.01,0.00,27.2,26.4,00.0,36.0,29.2,26.4,-001.6,0008.59,0011.97,0008.20
2022-06-02 16:07:00,,0828.3,5.01,0.00,27.2,26.4,00.0,36.1,29.2,26.9,-001.6,0008.67,0011.47,0008.28
2022-06-02 16:08:00,,0828.5,5.00,0.00,27.3,26.4,00.0,36.1,29.2,26.5,-001.5,0008.77,0011.47,0008.37
2022-06-02 16:09:00,,0828.2,4.99,0.00,27.3,26.4,00.0,36.1,29.2,26.2,-001.6,0008.86,0011.62,0008.45
2022-06-02 16:10:00,,0828.2,5.00,0.00,27.3,26.4,00.0,36.1,29.3,26.3,-001.1,0008.93,0011.77,0008.54
2022-06-02 16:11:00,,0828.3,5.01,0.00,27.3,26.4,00.0,36.1,29.3,26.9,-000.9,0008.96,0012.19,0008.58
2022-06-02 16:12:00,,0828.3,5.00,0.00,27.3,26.5,00.0,36.1,29.3,26.7,-000.7,0009.01,0012.22,0008.65
2022-06-02 16:13:00,,0828.2,5.00,0.00,27.3,26.5,00.0,36.1,29.3,26.0,-001.0,0009.11,0012.31,0008.76
2022-06-02 16:14:00,,0828.3,4.99,0.00,27.3,26.5,00.0,36.1,29.3,26.2,-000.9,0009.18,0012.33,0008.83
2022-06-02 16:15:00,,0828.2,4.99,0.00,27.3,26.5,00.0,36.2,29.3,26.1,-000.9,0009.23,0012.38,0008.87
2022-06-02 16:16:00,,0828.2,5.00,0.00,27.4,26.5,00.0,36.2,29.3,26.0,-001.2,0009.28,0012.41,0008.92
2022-06-02 16:17:00,,0828.2,5.00,0.00,27.4,26.5,00.0,36.2,29.3,26.5,-002.1,0009.32,0012.31,0008.95
2022-06-02 16:18:00,,0828.2,5.00,0.00,27.4,26.5,00.0,36.2,29.4,26.3,-002.1,0009.35,0012.44,0008.97
2022-06-02 16:19:00,,0828.3,5.00,0.00,27.4,26.6,00.0,36.2,29.4,26.2,-002.3,0009.37,0012.52,0009.00
2022-06-02 16:20:00,,0828.4,4.98,0.00,27.4,26.6,00.0,36.2,29.4,26.2,-001.9,0009.42,0012.51,0009.04
2022-06-02 16:21:00,,0828.4,5.00,0.00,27.4,26.6,00.0,36.2,29.4,25.9,-002.0,0009.47,0012.59,0009.08
2022-06-02 16:22:00,,0828.3,5.00,0.00,27.4,26.6,00.0,36.2,29.4,26.4,-002.0,0009.50,0012.08,0009.13
2022-06-02 16:23:00,,0828.3,5.01,0.00,27.5,26.6,00.0,36.3,29.4,26.6,-001.9,0009.51,0012.08,0009.14
2022-06-02 16:24:00,,0828.4,4.99,0.00,27.5,26.7,00.0,36.3,29.5,26.7,-001.9,0009.49,0012.02,0009.14
2022-06-02 16:25:00,,0828.2,5.00,0.00,27.5,26.7,00.0,36.3,29.5,25.8,-002.1,0009.54,0012.10,0009.18
2022-06-02 16:26:00,,0828.2,5.00,0.00,27.5,26.7,00.0,36.3,29.5,25.8,-001.7,0009.57,0012.17,0009.21
2022-06-02 16:27:00,,0828.2,4.99,0.00,27.5,26.7,00.0,36.3,29.5,25.9,-001.5,0009.60,0012.21,0009.21
2022-06-02 16:28:00,,0828.2,5.00,0.00,27.5,26.7,00.0,36.3,29.5,25.5,-001.4,0009.64,0012.27,0009.25
2022-06-02 16:29:00,,0828.3,5.01,0.00,27.6,26.7,00.0,36.3,29.5,25.2,-001.5,0009.69,0012.27,0009.30
2022-06-02 16:30:00,,0828.6,5.00,0.00,27.6,26.8,00.0,36.4,29.5,25.6,-001.4,0009.75,0012.28,0009.34
2022-06-02 16:31:00,,0828.4,4.99,0.00,27.6,26.8,00.0,36.4,29.6,26.2,-001.5,0009.77,0012.33,0009.36
2022-06-02 16:32:00,,0828.2,5.00,0.00,27.6,26.8,00.0,36.4,29.6,26.1,-001.6,0009.73,0012.20,0009.35
2022-06-02 16:33:00,,0828.4,5.00,0.00,27.6,26.8,00.0,36.4,29.6,25.4,-001.5,0009.75,0012.20,0009.36
2022-06-02 16:34:00,,0828.1,5.00,0.00,27.6,26.8,00.0,36.4,29.6,25.8,-001.3,0009.80,0012.25,0009.41
2022-06-02 16:35:00,,0828.1,5.00,0.00,27.7,26.8,00.0,36.4,29.6,26.6,-001.3,0009.86,0012.32,0009.45
2022-06-02 16:36:00,,0828.2,4.99,0.00,27.7,26.9,00.0,36.4,29.6,26.1,-001.3,0009.88,0012.37,0009.48
2022-06-02 16:37:00,,0828.2,4.99,0.00,27.7,26.9,00.0,36.5,29.6,26.2,-001.6,0009.91,0012.41,0009.51
2022-06-02 16:38:00,,0828.1,5.00,0.00,27.7,26.9,00.0,36.5,29.7,26.2,-001.8,0009.92,0012.41,0009.54
2022-06-02 16:39:00,,0828.2,5.01,0.00,27.7,26.9,00.0,36.5,29.7,25.8,-001.9,0009.96,0012.40,0009.60
2022-06-02 16:40:00,,0828.2,5.01,0.00,27.7,26.9,00.0,36.5,29.7,25.6,-001.7,0010.02,0012.76,0009.67
2022-06-02 16:41:00,,0828.2,5.01,0.00,27.7,26.9,00.0,36.5,29.7,25.6,-001.8,0010.04,0012.71,0009.71
2022-06-02 16:42:00,,0828.1,5.00,0.00,27.8,26.9,00.0,36.5,29.7,26.4,-001.4,0010.01,0012.61,0009.70
2022-06-02 16:43:00,,0828.1,5.01,0.00,27.8,27.0,00.0,36.6,29.7,25.9,-001.5,0010.04,0012.68,0009.71
2022-06-02 16:44:00,,0828.1,5.00,0.00,27.8,27.0,00.0,36.6,29.8,25.5,-001.6,0010.12,0012.82,0009.76
2022-06-02 16:45:00,,0828.1,4.99,0.00,27.8,27.0,00.0,36.6,29.8,25.7,-001.5,0010.14,0012.86,0009.79
2022-06-02 16:46:00,,0828.1,5.01,0.00,27.8,27.0,00.0,36.6,29.8,25.9,-001.6,0010.18,0012.93,0009.82
2022-06-02 16:47:00,,0828.1,5.00,0.00,27.8,27.0,00.0,36.6,29.8,26.0,-001.4,0010.18,0012.91,0009.80
2022-06-02 16:48:00,,0828.1,5.00,0.00,27.8,27.0,00.0,36.6,29.8,26.0,-001.3,0010.15,0013.21,0009.76
2022-06-02 16:49:00,,0828.2,5.00,0.00,27.8,27.0,00.0,36.6,29.8,25.6,-001.4,0010.12,0013.38,0009.73
2022-06-02 16:50:00,,0828.2,5.01,0.00,27.8,27.0,00.0,36.7,29.8,25.6,-001.0,0010.13,0013.61,0009.69
2022-06-02 16:51:00,,0828.1,5.01,0.00,27.9,27.0,00.0,36.7,29.8,26.0,-001.0,0010.12,0013.47,0009.66
2022-06-02 16:52:00,,0828.1,4.99,0.00,27.9,27.0,00.0,36.7,29.8,26.1,-001.0,0010.12,0013.44,0009.65
2022-06-02 16:53:00,,0828.1,5.01,0.00,27.9,27.1,00.0,36.7,29.8,25.8,-001.2,0010.22,0013.61,0009.70
2022-06-02 16:54:00,,0828.1,5.00,0.00,27.9,27.1,00.0,36.7,29.9,26.8,-001.3,0010.31,0014.31,0009.82
2022-06-02 16:55:00,,0828.1,5.00,0.00,27.9,27.1,00.0,36.7,29.9,25.9,-001.4,0010.31,0015.02,0009.86
2022-06-02 16:56:00,,0828.1,5.00,0.00,27.9,27.1,00.0,36.7,29.9,25.5,-001.4,0010.37,0015.09,0009.92
2022-06-02 16:57:00,,0828.1,5.01,0.00,27.9,27.1,00.0,36.7,29.9,25.8,-001.5,0010.40,0015.08,0009.95
2022-06-02 16:58:00,,0828.1,5.01,0.00,28.0,27.1,00.0,36.8,29.9,26.3,-001.6,0010.41,0015.06,0009.98
2022-06-02 16:59:00,,0828.2,5.01,0.00,28.0,27.2,00.0,36.8,29.9,26.6,-001.5,0010.42,0014.74,0010.00
